Location: Seagrave Observatory
(41.8500°N, 71.5833°W)
Time: 00:29:51
(UTC-05:00)

Daily predictions for brighter satellites

Satellite Brightness Start Highest point End
(mag) Time Altitude Azimuth Time Altitude Azimuth Time Altitude Azimuth
Cosmos 2369 Rocket 3.8 03:14:21 29° NNE 03:14:21 29° NNE 03:17:02 10° NNE
Lacrosse 5 3.3 03:28:19 35° ENE 03:28:19 35° ENE 03:31:15 10° NE
ADEOS Rocket 4.4 03:30:35 10° N 03:33:58 28° NNW 03:33:58 28° NNW
USA 234 3.8 03:34:14 10° NE 03:40:35 52° SE 03:41:54 45° SSE
ATLAS 5 CENTAUR R/B 3.0 03:46:24 38° NNE 03:46:24 38° NNE 03:49:41 10° NNE
Cosmos 1943 Rocket 2.3 03:51:55 63° NNE 03:51:55 63° NNE 03:56:35 10° NNE
CZ-4C R/B 2.8 03:54:45 42° SSE 03:55:53 48° ESE 04:01:29 10° NE
Cosmos 1452 Rocket 3.8 04:02:10 46° SSE 04:03:32 63° ESE 04:08:46 10° NNE
CZ-4B R/B 3.1 03:57:57 10° N 04:03:30 77° WNW 04:03:30 77° WNW
Cosmos 1703 Rocket 4.0 04:04:06 58° E 04:04:06 58° E 04:08:21 10° NNE
Lacrosse 5 rocket 3.6 04:12:43 14° N 04:13:34 15° NNE 04:15:41 10° ENE
ADEOS II 2.1 04:09:21 10° N 04:14:12 62° NW 04:14:12 62° NW
Okean O Rocket 3.7 04:18:42 10° N 04:19:45 16° NNW 04:19:45 16° NNW
Cosmos 676 Rocket 3.9 04:20:01 27° NNW 04:22:54 73° WSW 04:28:12 10° S
Meteor 1-14 Rocket 4.2 04:23:07 10° N 04:28:58 88° E 04:34:39 10° S
COSMO-SKYMED 1 3.9 04:27:53 10° SE 04:31:56 40° ENE 04:36:01 10° N
Cosmos 1140 Rocket 3.5 04:27:00 10° NNW 04:32:16 84° ENE 04:37:31 10° SSE
Cosmos 1782 4.2 04:30:48 10° SSE 04:34:29 39° E 04:38:12 10° NNE
Cosmos 614 Rocket 4.2 04:31:39 10° NNW 04:36:46 70° ENE 04:41:52 10° SSE
Cosmos 2221 Rocket 3.5 04:38:26 26° SSW 04:40:56 70° W 04:45:30 10° N
Meteor 1-26 Rocket 4.2 04:41:38 18° SSW 04:45:50 57° WNW 04:51:22 10° N
Okean 1-7 2.8 04:45:42 19° SSW 04:48:43 67° W 04:52:58 10° N
Meteor 1-25 Rocket 4.2 04:46:05 10° N 04:51:57 85° W 04:57:47 10° S
Cosmos 1656 Rocket 3.7 04:50:01 23° SW 04:53:31 59° WNW 04:59:09 10° NNE
Cosmos 2219 3.1 04:48:45 10° NNW 04:54:27 78° WSW 05:00:03 10° SSE
Cosmos 2369 Rocket 3.8 04:56:10 16° NW 04:56:10 16° NW 04:59:35 10° N
Meteor 1-31 Rocket 3.0 04:53:34 10° N 04:57:17 45° WNW 04:58:26 34° WSW
Cosmos 2227 Rocket 3.6 04:53:09 10° N 04:58:25 38° ENE 05:03:41 10° SE
GEOS 3 Rocket 4.2 04:56:41 10° S 05:01:11 32° WSW 05:02:58 26° W
ATLAS CENTAUR R/B 4.4 04:59:20 24° W 05:02:43 32° SW 05:17:00 10° S
Abrixas 4.2 05:02:41 19° NNW 05:03:19 21° N 05:05:36 10° NE
Cosmos 1850 Rocket 3.9 05:00:11 10° NNW 05:05:32 78° WSW 05:10:49 10° SSE
Cosmos 1782 Rocket 4.1 05:03:19 10° NNW 05:07:23 35° W 05:11:24 10° SSW
Cosmos 1745 Rocket 3.9 05:01:23 10° NNW 05:07:30 72° W 05:13:35 10° S
Lacrosse 5 3.0 05:07:32 21° WNW 05:09:35 28° NNW 05:13:57 10° NNE
Cosmos 1386 Rocket 4.4 05:03:44 10° N 05:09:49 90° W 05:15:58 10° S
Ariane Rocket 3.7 05:10:23 10° NNE 05:15:25 57° E 05:20:24 10° S
Meteor 1-10 Rocket 4.1 05:13:05 10° SSW 05:18:39 81° W 05:24:21 10° N
Cosmos 1420 Rocket 4.3 05:14:19 10° SW 05:19:14 45° WNW 05:24:14 10° N
SKYMED 2 3.6 05:15:39 10° S 05:19:55 59° W 05:24:14 10° NNW
Okean-O 3.5 05:16:42 10° N 05:20:31 29° WNW 05:23:59 12° SW
Meteor 2-10 Rocket 4.3 05:17:38 16° WSW 05:20:32 27° WNW 05:24:49 10° NNW
CZ-4 R/B 4.0 05:17:09 10° NE 05:20:38 25° E 05:24:03 10° SSE
Cosmos 1633 3.2 05:17:08 10° N 05:20:43 57° E 05:24:15 10° SSE
ERS-2 4.3 05:21:22 10° NW 05:22:00 12° NW 05:22:00 12° NW
NOAA 6 4.2 05:18:14 10° N 05:23:15 52° WNW 05:28:13 10° SW
USA 234 3.5 05:17:17 10° NE 05:23:34 52° NNW 05:29:16 13° WSW
Tiangong 1 0.9 05:24:16 23° W 05:25:52 72° N 05:28:49 10° E
USA 238 DEB 4.4 05:19:17 10° SSW 05:26:08 59° ESE 05:33:00 10° NE
USA 238 4.4 05:19:23 10° SSW 05:26:13 58° ESE 05:33:05 10° NE
IDEFIX/ARIANE 42P 4.1 05:22:14 10° NNE 05:27:08 40° E 05:32:00 10° SSE
ATLAS 5 CENTAUR R/B 3.7 05:27:58 12° WNW 05:30:18 15° NNW 05:33:21 10° N
Cosmos 1674 Rocket 3.6 05:27:56 10° S 05:32:20 86° E 05:36:48 10° N
Cosmos 1943 Rocket 3.8 05:33:27 12° WNW 05:35:36 15° NW 05:38:42 10° NNW
Okean 2 Rocket 4.1 05:32:22 10° NW 05:35:51 23° W 05:39:20 10° SW
Radarsat Rocket 4.3 05:30:08 10° N 05:37:16 61° WNW 05:43:32 10° SW
Cosmos 1331 Rocket 4.3 05:32:44 10° S 05:37:52 72° ESE 05:43:04 10° NNE
CZ-4C R/B 3.1 05:39:58 11° W 05:44:38 31° NW 05:50:02 10° NNE
Meteor 1-28 Rocket 3.7 05:41:29 10° SSW 05:44:57 37° W 05:48:27 10° NNW
Cosmos 1607 3.9 05:39:25 10° SW 05:45:30 67° NW 05:51:41 10° NNE
Cosmos 1536 3.4 05:43:09 10° N 05:47:08 62° E 05:51:06 10° SSE
ATLAS 3B R/B 2.9 05:41:38 10° SW 05:49:11 70° NW 05:56:28 10° NNE
Cosmos 1110 Rocket 3.9 05:46:39 10° SSW 05:51:48 76° WNW 05:57:00 10° NNE
Okean 1 Rocket 3.1 05:48:01 10° N 05:52:27 88° E 05:56:49 10° S
Lacrosse 5 rocket 1.1 05:49:41 10° NW 05:53:18 79° NE 05:56:54 10° SE
Meteor 1-27 Rocket 3.8 05:48:21 10° SSW 05:54:05 69° W 06:00:00 10° N
Cosmos 2151 Rocket 4.4 05:51:36 10° NNW 05:55:34 31° W 05:59:29 10° SSW
CSL-04 Rocket 3.7 05:50:20 10° N 05:55:43 73° WNW 06:01:09 10° SSW
SJ-12 4.1 05:55:00 10° NNE 05:59:07 82° ESE 06:03:14 10° S
Cosmos 2082 3.7 05:53:57 10° NNW 05:59:39 82° WSW 06:05:16 10° SSE
